Location: Newark
(54.6833°N, 25.2833°E)
Time: 22:11:17
(UTC+00:00)

Tiros 1 despin weight - Pass Details

Date: 25 November 2019
Orbit: 594 x 642 km, 48.2° (Epoch: 13 December)

Event Time Altitude Azimuth Distance (km) Brightness Sun altitude
Rises 12:34:10 0° 261° (W) 2,829 ? 8.2°
Reaches altitude 10° 12:36:35 10° 252° (WSW) 1,929 ? 8.0°
Maximum altitude 12:40:34 34° 188° (S) 988 ? 7.6°
Drops below altitude 10° 12:44:35 10° 123° (ESE) 1,940 ? 7.3°
Sets 12:47:02 0° 114° (ESE) 2,849 ? 7.1°
